Tracking 35048 objects as of 19-Aug-2026
HD Live streaming from Space Station
objects crossing your sky now

COSMOS 1985 DEB


COSMOS 1985 DEB is no longer on orbit


NORAD ID: 20286
Int'l Code: 1988-113Y
Launch date: December 23, 1988
Source: Commonwealth of Independent States (former USSR) (CIS)
Launch site: PLESETSK MISSILE AND SPACE COMPLEX (PKMTR)
Decay date: 1989-11-14

Note: This is SATELLITE DEBRIS
Your satellite tracking list
Your tracking list is empty




NASA's NSSDC Master Catalog

Two Line Element Set (TLE):
1 20286U 88113  Y 89314.87290588  .04402907 +00000-0 +29889-1 0  9994
2 20286 073.5349 234.5400 0019962 146.1797 213.9598 15.74505836048958
Source of the keplerian elements: AFSPC